Location: Ellingshausen
(50.5460°N, 10.4723°E)
Time: 20:16:35
(UTC+00:00)

Cosmos 2366 rocket - Pass Details

Date: 18 January 2026
Orbit: 955 x 995 km, 82.9° (Epoch: 15 February)

Event Time Altitude Azimuth Distance (km) Brightness Sun altitude
Rises 05:53:21 0° 189° (S) 3,640 7.1 -11.9°
Reaches altitude 10° 05:55:49 10° 190° (S) 2,703 6.4 -11.5°
Maximum altitude 06:02:02 85° 278° (W) 986 4.0 -10.6°
Drops below altitude 10° 06:08:22 10° 9° (N) 2,750 6.3 -9.7°
Sets 06:10:54 0° 10° (N) 3,708 6.9 -9.3°
